Location: Bothwell
(41.7170°N, 112.2589°W)
Time: 10:59:51
(UTC+00:00)

Injun/Solrad 3 - Visible Passes

Search period start: 15 May 2026 00:00
Search period end: 25 May 2026 00:00
Orbit: 868 x 988 km, 66.8° (Epoch: 14 May)

Date Brightness Start Highest point End Pass type
(mag) Time Alt. Az. Time Alt. Az. Time Alt. Az.
15 May 10.4 05:33:17 10° N 05:35:56 13° NNE 05:38:36 10° NE visible
15 May 8.7 07:17:56 10° NNW 07:24:07 47° NE 07:25:57 38° E visible
15 May 8.9 09:04:48 10° NW 09:09:33 32° W 09:09:33 32° W visible
16 May 10.2 05:43:34 10° N 05:47:33 17° NE 05:51:32 10° ENE visible
16 May 8.1 07:28:51 10° NNW 07:35:17 68° ENE 07:36:14 60° ESE visible
16 May 9.5 09:16:29 10° WNW 09:19:49 20° W 09:19:49 20° W visible
17 May 9.8 05:54:08 10° N 05:59:03 22° NE 06:02:57 13° E visible
17 May 7.8 07:39:52 10° NNW 07:46:20 84° WSW 07:46:34 82° SSW visible
17 May 10.0 09:28:55 10° WNW 09:30:09 12° W 09:30:09 12° W visible
18 May 9.4 06:04:50 10° NNW 06:10:26 30° NE 06:13:21 22° E visible
18 May 8.2 07:51:01 10° NW 07:56:57 56° W 07:56:57 56° W visible
19 May 10.4 04:31:19 10° N 04:33:23 11° NNE 04:35:27 10° NE visible
19 May 8.9 06:15:39 10° NNW 06:21:44 42° NE 06:23:48 33° E visible
19 May 8.8 08:02:19 10° NW 08:07:24 37° W 08:07:24 37° W visible
20 May 10.2 04:41:25 10° N 04:45:02 15° NE 04:48:38 10° ENE visible
20 May 8.3 06:26:32 10° NNW 06:32:55 60° NE 06:34:17 50° ESE visible
20 May 9.4 08:13:53 10° NW 08:17:54 24° W 08:17:54 24° W visible
21 May 9.9 04:51:55 10° N 04:56:34 20° NE 05:01:13 10° E visible
21 May 7.9 06:37:31 10° NNW 06:44:00 86° ENE 06:44:50 70° SE visible
21 May 9.9 08:25:59 10° WNW 08:28:27 15° W 08:28:27 15° W visible
22 May 9.5 05:02:36 10° NNW 05:08:00 27° NE 05:11:48 16° E visible
22 May 8.0 06:48:37 10° NW 06:55:00 65° WSW 06:55:25 63° SW visible
23 May 10.4 03:29:35 10° NNE 03:30:49 11° NNE 03:32:03 10° NE visible
23 May 9.0 05:13:22 10° NNW 05:19:20 38° NE 05:22:25 24° E visible
23 May 8.5 06:59:52 10° NW 07:05:55 43° WSW 07:06:02 43° WSW visible
24 May 10.1 03:39:18 10° N 03:42:30 14° NNE 03:45:42 10° ENE visible
24 May 8.4 05:24:13 10° NNW 05:30:33 53° NE 05:33:04 34° ESE visible
24 May 9.1 07:11:20 10° NW 07:16:41 29° WSW 07:16:41 29° WSW visible
